CZ-6A DEB, 60632

Orbit data source: Space-Track

CZ-6A DEB, 60632 is space debris in LEO originally from a launch on Tue, 06 Aug 2024 UTC launched from the Taiyaun Space Center, China (TSC). Debris objects in space refer to the collection of defunct objects orbiting the Earth. Examples of debris include non-operational satellites, rocket bodies, and fragments generated from explosions, collisions, or faulty payload assembly.

Loading next visibility...
Identifier
60632, 2024-140AH
Orbit
LEO
Country
Flag of CNCN / PRC
Related business
Manufacturer
SAST
Mission
Spacecraft
Bus & Motor
Unknown
Mass
Unknown
Launch date (UTC)
2024-08-06 (2 years ago)
Launch vehicle
Unknown
Launch site
Taiyaun Space Center, China (TSC)
Object type
Payload
Rocket body
Debris
Shape & HBR
Unknown shape, 0.3 m
Radar Cross Section
Medium (>0.1 m² and <1 m²)

Expand to show TLE details & history
Last TLE update: 15 hours ago

TLE from 15 hours ago
0 CZ-6A DEB
1 60632U 24140AH  26171.34452965  .00000782  00000-0  17498-3 0  9992
2 60632  89.0455 273.9243 0104859 265.1980  93.7249 14.52441341 98806
Epoch: 2026-06-20T08:16Z
TLE epoch observation values (Epoch: 2026-06-20T08:16:07.361Z)
Latitude
0.00002°
Longitude
-118.66687°
Altitude
726.397 km
Speed
7.489 km/s
True Right ascension
18h 15m 41s
True Declination
0° 00' 00"
Sunlit
Object was in full shadow at epoch
Visualization orbit readout
Latitude
Unknown
Longitude
Unknown
Altitude
Unknown
Speed
Unknown
Apparent Right ascension
Unknown
Apparent Declination
Unknown
Sunlit
N/A
Visualization observer readout
Local Sidereal Time
10:19:36
Azimuth
Unknown
Elevation
Unknown
Doppler factor
Unknown
Orbital elements
Apogee altitude
788.964 km
Perigee altitude
640.216 km
Semi-major axis
7,092.727 km
Eccentricity
0.01049
Inclination
89.0455°
RAAN
273.9243°
Arg. of periapsis
265.198°
True anomaly
94.92285°
Mean anomaly
93.7249°
Eccentric anomaly
94.32399°
Mean motion
3.63348 °/min
Orbital period
99.08 mins
BSTAR
0.00017498
Loading maneuver chart data...
Computing Atmospheric mass density...
Loading historical data...
Loading historical data...
Loading historical data...
Loading historical data...
Loading historical data...
Loading historical data...
Loading historical data...

Documentation

Showing up to 5 results
|